Year,Month,Day,Hour,Minute,Value (Times are PST for insolation in W/m^2)
2012,08,10,00,00,0.00
2012,08,10,00,01,0.00
2012,08,10,00,02,0.00
2012,08,10,00,03,0.00
2012,08,10,00,04,0.00
2012,08,10,00,05,0.00
2012,08,10,00,06,0.00
2012,08,10,00,07,0.00
2012,08,10,00,08,0.00
2012,08,10,00,09,0.00
2012,08,10,00,10,0.00
2012,08,10,00,11,0.00
2012,08,10,00,12,0.00
2012,08,10,00,13,0.00
2012,08,10,00,14,0.00
2012,08,10,00,15,0.00
2012,08,10,00,16,0.00
2012,08,10,00,17,0.00
2012,08,10,00,18,0.00
2012,08,10,00,19,0.00
2012,08,10,00,20,0.00
2012,08,10,00,21,0.00
2012,08,10,00,22,0.00
2012,08,10,00,23,0.00
2012,08,10,00,24,0.00
2012,08,10,00,25,0.00
2012,08,10,00,26,0.00
2012,08,10,00,27,0.00
2012,08,10,00,28,0.00
2012,08,10,00,29,0.00
2012,08,10,00,30,0.00
2012,08,10,00,31,0.00
2012,08,10,00,32,0.00
2012,08,10,00,33,0.00
2012,08,10,00,34,0.00
2012,08,10,00,35,0.00
2012,08,10,00,36,0.00
2012,08,10,00,37,0.00
2012,08,10,00,38,0.00
2012,08,10,00,39,0.00
2012,08,10,00,40,0.00
2012,08,10,00,41,0.00
2012,08,10,00,42,0.00
2012,08,10,00,43,0.00
2012,08,10,00,44,0.00
2012,08,10,00,45,0.00
2012,08,10,00,46,0.00
2012,08,10,00,47,0.00
2012,08,10,00,48,0.00
2012,08,10,00,49,0.00
2012,08,10,00,50,0.00
2012,08,10,00,51,0.00
2012,08,10,00,52,0.00
2012,08,10,00,53,0.00
2012,08,10,00,54,0.00
2012,08,10,00,55,0.00
2012,08,10,00,56,0.00
2012,08,10,00,57,0.00
2012,08,10,00,58,0.00
2012,08,10,00,59,0.00
2012,08,10,01,00,0.00
2012,08,10,01,01,0.00
2012,08,10,01,02,0.00
2012,08,10,01,03,0.00
2012,08,10,01,04,0.00
2012,08,10,01,05,0.00
2012,08,10,01,06,0.00
2012,08,10,01,07,0.00
2012,08,10,01,08,0.00
2012,08,10,01,09,0.00
2012,08,10,01,10,0.00
2012,08,10,01,11,0.00
2012,08,10,01,12,0.00
2012,08,10,01,13,0.00
2012,08,10,01,14,0.00
2012,08,10,01,15,0.00
2012,08,10,01,16,0.00
2012,08,10,01,17,0.00
2012,08,10,01,18,0.00
2012,08,10,01,19,0.00
2012,08,10,01,20,0.00
2012,08,10,01,21,0.00
2012,08,10,01,22,0.00
2012,08,10,01,23,0.00
2012,08,10,01,24,0.00
2012,08,10,01,25,0.00
2012,08,10,01,26,0.00
2012,08,10,01,27,0.00
2012,08,10,01,28,0.00
2012,08,10,01,29,0.00
2012,08,10,01,30,0.00
2012,08,10,01,31,0.00
2012,08,10,01,32,0.00
2012,08,10,01,33,0.00
2012,08,10,01,34,0.00
2012,08,10,01,35,0.00
2012,08,10,01,36,0.00
2012,08,10,01,37,0.00
2012,08,10,01,38,0.00
2012,08,10,01,39,0.00
2012,08,10,01,40,0.00
2012,08,10,01,41,0.00
2012,08,10,01,42,0.00
2012,08,10,01,43,0.00
2012,08,10,01,44,0.00
2012,08,10,01,45,0.00
2012,08,10,01,46,0.00
2012,08,10,01,47,0.00
2012,08,10,01,48,0.00
2012,08,10,01,49,0.00
2012,08,10,01,50,0.00
2012,08,10,01,51,0.00
2012,08,10,01,52,0.00
2012,08,10,01,53,0.00
2012,08,10,01,54,0.00
2012,08,10,01,55,0.00
2012,08,10,01,56,0.00
2012,08,10,01,57,0.00
2012,08,10,01,58,0.00
2012,08,10,01,59,0.00
2012,08,10,02,00,0.00
2012,08,10,02,01,0.00
2012,08,10,02,02,0.00
2012,08,10,02,03,0.00
2012,08,10,02,04,0.00
2012,08,10,02,05,0.00
2012,08,10,02,06,0.00
2012,08,10,02,07,0.00
2012,08,10,02,08,0.00
2012,08,10,02,09,0.00
2012,08,10,02,10,0.00
2012,08,10,02,11,0.00
2012,08,10,02,12,0.00
2012,08,10,02,13,0.00
2012,08,10,02,14,0.00
2012,08,10,02,15,0.00
2012,08,10,02,16,0.00
2012,08,10,02,17,0.00
2012,08,10,02,18,0.00
2012,08,10,02,19,0.00
2012,08,10,02,20,0.00
2012,08,10,02,21,0.00
2012,08,10,02,22,0.00
2012,08,10,02,23,0.00
2012,08,10,02,24,0.00
2012,08,10,02,25,0.00
2012,08,10,02,26,0.00
2012,08,10,02,27,0.00
2012,08,10,02,28,0.00
2012,08,10,02,29,0.00
2012,08,10,02,30,0.00
2012,08,10,02,31,0.00
2012,08,10,02,32,0.00
2012,08,10,02,33,0.00
2012,08,10,02,34,0.00
2012,08,10,02,35,0.00
2012,08,10,02,36,0.00
2012,08,10,02,37,0.00
2012,08,10,02,38,0.00
2012,08,10,02,39,0.00
2012,08,10,02,40,0.00
2012,08,10,02,41,0.00
2012,08,10,02,42,0.00
2012,08,10,02,43,0.00
2012,08,10,02,44,0.00
2012,08,10,02,45,0.00
2012,08,10,02,46,0.00
2012,08,10,02,47,0.00
2012,08,10,02,48,0.00
2012,08,10,02,49,0.00
2012,08,10,02,50,0.00
2012,08,10,02,51,0.00
2012,08,10,02,52,0.00
2012,08,10,02,53,0.00
2012,08,10,02,54,0.00
2012,08,10,02,55,0.00
2012,08,10,02,56,0.00
2012,08,10,02,57,0.00
2012,08,10,02,58,0.00
2012,08,10,02,59,0.00
2012,08,10,03,00,0.00
2012,08,10,03,01,0.00
2012,08,10,03,02,0.00
2012,08,10,03,03,0.00
2012,08,10,03,04,0.00
2012,08,10,03,05,0.00
2012,08,10,03,06,0.00
2012,08,10,03,07,0.00
2012,08,10,03,08,0.00
2012,08,10,03,09,0.00
2012,08,10,03,10,0.00
2012,08,10,03,11,0.00
2012,08,10,03,12,0.00
2012,08,10,03,13,0.00
2012,08,10,03,14,0.00
2012,08,10,03,15,0.00
2012,08,10,03,16,0.00
2012,08,10,03,17,0.00
2012,08,10,03,18,0.00
2012,08,10,03,19,0.00
2012,08,10,03,20,0.00
2012,08,10,03,21,0.00
2012,08,10,03,22,0.00
2012,08,10,03,23,0.00
2012,08,10,03,24,0.00
2012,08,10,03,25,0.00
2012,08,10,03,26,0.00
2012,08,10,03,27,0.00
2012,08,10,03,28,0.00
2012,08,10,03,29,0.00
2012,08,10,03,30,0.00
2012,08,10,03,31,0.00
2012,08,10,03,32,0.00
2012,08,10,03,33,0.00
2012,08,10,03,34,0.00
2012,08,10,03,35,0.00
2012,08,10,03,36,0.00
2012,08,10,03,37,0.00
2012,08,10,03,38,0.00
2012,08,10,03,39,0.00
2012,08,10,03,40,0.00
2012,08,10,03,41,0.00
2012,08,10,03,42,0.00
2012,08,10,03,43,0.00
2012,08,10,03,44,0.00
2012,08,10,03,45,0.00
2012,08,10,03,46,0.00
2012,08,10,03,47,0.00
2012,08,10,03,48,0.00
2012,08,10,03,49,0.00
2012,08,10,03,50,0.00
2012,08,10,03,51,0.00
2012,08,10,03,52,0.00
2012,08,10,03,53,0.00
2012,08,10,03,54,0.00
2012,08,10,03,55,0.00
2012,08,10,03,56,0.00
2012,08,10,03,57,0.00
2012,08,10,03,58,0.00
2012,08,10,03,59,0.00
2012,08,10,04,00,0.00
2012,08,10,04,01,0.00
2012,08,10,04,02,0.00
2012,08,10,04,03,0.00
2012,08,10,04,04,0.00
2012,08,10,04,05,0.00
2012,08,10,04,06,0.00
2012,08,10,04,07,0.00
2012,08,10,04,08,0.00
2012,08,10,04,09,0.00
2012,08,10,04,10,0.00
2012,08,10,04,11,0.00
2012,08,10,04,12,0.00
2012,08,10,04,13,0.00
2012,08,10,04,14,0.00
2012,08,10,04,15,0.00
2012,08,10,04,16,0.00
2012,08,10,04,17,0.00
2012,08,10,04,18,0.00
2012,08,10,04,19,0.00
2012,08,10,04,20,0.00
2012,08,10,04,21,0.00
2012,08,10,04,22,0.00
2012,08,10,04,23,0.00
2012,08,10,04,24,0.00
2012,08,10,04,25,0.00
2012,08,10,04,26,0.00
2012,08,10,04,27,0.00
2012,08,10,04,28,0.00
2012,08,10,04,29,0.00
2012,08,10,04,30,0.00
2012,08,10,04,31,0.00
2012,08,10,04,32,0.00
2012,08,10,04,33,0.00
2012,08,10,04,34,0.00
2012,08,10,04,35,0.00
2012,08,10,04,36,0.00
2012,08,10,04,37,0.00
2012,08,10,04,38,0.00
2012,08,10,04,39,0.00
2012,08,10,04,40,0.00
2012,08,10,04,41,0.00
2012,08,10,04,42,0.00
2012,08,10,04,43,0.00
2012,08,10,04,44,0.00
2012,08,10,04,45,0.00
2012,08,10,04,46,0.00
2012,08,10,04,47,0.00
2012,08,10,04,48,0.00
2012,08,10,04,49,0.00
2012,08,10,04,50,0.00
2012,08,10,04,51,0.00
2012,08,10,04,52,0.00
2012,08,10,04,53,0.00
2012,08,10,04,54,0.00
2012,08,10,04,55,0.00
2012,08,10,04,56,0.00
2012,08,10,04,57,0.00
2012,08,10,04,58,0.00
2012,08,10,04,59,0.00
2012,08,10,05,00,0.00
2012,08,10,05,01,0.00
2012,08,10,05,02,0.00
2012,08,10,05,03,0.00
2012,08,10,05,04,0.00
2012,08,10,05,05,0.00
2012,08,10,05,06,0.00
2012,08,10,05,07,0.00
2012,08,10,05,08,0.00
2012,08,10,05,09,0.00
2012,08,10,05,10,0.00
2012,08,10,05,11,0.00
2012,08,10,05,12,0.00
2012,08,10,05,13,0.00
2012,08,10,05,14,0.00
2012,08,10,05,15,0.00
2012,08,10,05,16,0.00
2012,08,10,05,17,0.00
2012,08,10,05,18,0.00
2012,08,10,05,19,0.00
2012,08,10,05,20,0.00
2012,08,10,05,21,0.00
2012,08,10,05,22,0.00
2012,08,10,05,23,0.00
2012,08,10,05,24,0.00
2012,08,10,05,25,0.00
2012,08,10,05,26,0.00
2012,08,10,05,27,0.00
2012,08,10,05,28,0.00
2012,08,10,05,29,0.00
2012,08,10,05,30,0.00
2012,08,10,05,31,0.00
2012,08,10,05,32,0.00
2012,08,10,05,33,0.00
2012,08,10,05,34,0.00
2012,08,10,05,35,0.00
2012,08,10,05,36,0.00
2012,08,10,05,37,0.00
2012,08,10,05,38,0.00
2012,08,10,05,39,0.00
2012,08,10,05,40,0.00
2012,08,10,05,41,0.00
2012,08,10,05,42,0.00
2012,08,10,05,43,0.00
2012,08,10,05,44,0.00
2012,08,10,05,45,0.00
2012,08,10,05,46,0.00
2012,08,10,05,47,0.00
2012,08,10,05,48,0.00
2012,08,10,05,49,0.00
2012,08,10,05,50,0.00
2012,08,10,05,51,0.00
2012,08,10,05,52,0.00
2012,08,10,05,53,0.00
2012,08,10,05,54,0.00
2012,08,10,05,55,0.00
2012,08,10,05,56,0.00
2012,08,10,05,57,0.00
2012,08,10,05,58,0.00
2012,08,10,05,59,0.00
2012,08,10,06,00,0.00
2012,08,10,06,01,0.00
2012,08,10,06,02,0.00
2012,08,10,06,03,0.00
2012,08,10,06,04,1.20
2012,08,10,06,05,5.00
2012,08,10,06,06,5.00
2012,08,10,06,07,5.00
2012,08,10,06,08,5.00
2012,08,10,06,09,6.90
2012,08,10,06,10,7.00
2012,08,10,06,11,7.00
2012,08,10,06,12,8.10
2012,08,10,06,13,9.00
2012,08,10,06,14,9.00
2012,08,10,06,15,10.90
2012,08,10,06,16,11.00
2012,08,10,06,17,11.00
2012,08,10,06,18,11.60
2012,08,10,06,19,12.00
2012,08,10,06,20,12.00
2012,08,10,06,21,14.00
2012,08,10,06,22,14.00
2012,08,10,06,23,14.90
2012,08,10,06,24,16.00
2012,08,10,06,25,17.40
2012,08,10,06,26,18.00
2012,08,10,06,27,18.10
2012,08,10,06,28,19.00
2012,08,10,06,29,20.00
2012,08,10,06,30,21.00
2012,08,10,06,31,21.00
2012,08,10,06,32,22.80
2012,08,10,06,33,23.40
2012,08,10,06,34,25.00
2012,08,10,06,35,25.50
2012,08,10,06,36,26.00
2012,08,10,06,37,26.00
2012,08,10,06,38,27.80
2012,08,10,06,39,28.40
2012,08,10,06,40,30.00
2012,08,10,06,41,30.00
2012,08,10,06,42,31.40
2012,08,10,06,43,32.80
2012,08,10,06,44,33.00
2012,08,10,06,45,33.50
2012,08,10,06,46,35.00
2012,08,10,06,47,35.00
2012,08,10,06,48,36.30
2012,08,10,06,49,37.00
2012,08,10,06,50,38.90
2012,08,10,06,51,39.20
2012,08,10,06,52,40.00
2012,08,10,06,53,41.10
2012,08,10,06,54,42.00
2012,08,10,06,55,42.00
2012,08,10,06,56,43.90
2012,08,10,06,57,44.60
2012,08,10,06,58,46.00
2012,08,10,06,59,46.00
2012,08,10,07,00,46.80
2012,08,10,07,01,47.00
2012,08,10,07,02,49.00
2012,08,10,07,03,49.60
2012,08,10,07,04,53.20
2012,08,10,07,05,59.60
2012,08,10,07,06,62.00
2012,08,10,07,07,69.00
2012,08,10,07,08,74.60
2012,08,10,07,09,78.30
2012,08,10,07,10,82.00
2012,08,10,07,11,83.60
2012,08,10,07,12,85.50
2012,08,10,07,13,87.90
2012,08,10,07,14,90.00
2012,08,10,07,15,91.00
2012,08,10,07,16,95.00
2012,08,10,07,17,97.70
2012,08,10,07,18,101.20
2012,08,10,07,19,103.90
2012,08,10,07,20,106.00
2012,08,10,07,21,109.70
2012,08,10,07,22,112.00
2012,08,10,07,23,113.60
2012,08,10,07,24,117.20
2012,08,10,07,25,120.00
2012,08,10,07,26,121.50
2012,08,10,07,27,123.70
2012,08,10,07,28,126.10
2012,08,10,07,29,127.70
2012,08,10,07,30,129.70
2012,08,10,07,31,133.90
2012,08,10,07,32,135.50
2012,08,10,07,33,137.80
2012,08,10,07,34,140.10
2012,08,10,07,35,141.70
2012,08,10,07,36,145.40
2012,08,10,07,37,148.10
2012,08,10,07,38,149.60
2012,08,10,07,39,151.90
2012,08,10,07,40,154.10
2012,08,10,07,41,155.80
2012,08,10,07,42,159.50
2012,08,10,07,43,162.20
2012,08,10,07,44,163.60
2012,08,10,07,45,166.80
2012,08,10,07,46,170.20
2012,08,10,07,47,173.20
2012,08,10,07,48,177.80
2012,08,10,07,49,181.40
2012,08,10,07,50,183.60
2012,08,10,07,51,185.40
2012,08,10,07,52,187.20
2012,08,10,07,53,189.50
2012,08,10,07,54,191.90
2012,08,10,07,55,195.40
2012,08,10,07,56,197.70
2012,08,10,07,57,200.40
2012,08,10,07,58,203.20
2012,08,10,07,59,206.40
2012,08,10,08,00,209.00
2012,08,10,08,01,211.60
2012,08,10,08,02,215.40
2012,08,10,08,03,219.60
2012,08,10,08,04,223.60
2012,08,10,08,05,226.60
2012,08,10,08,06,229.20
2012,08,10,08,07,232.50
2012,08,10,08,08,235.10
2012,08,10,08,09,238.00
2012,08,10,08,10,241.60
2012,08,10,08,11,243.80
2012,08,10,08,12,246.30
2012,08,10,08,13,250.20
2012,08,10,08,14,251.80
2012,08,10,08,15,254.10
2012,08,10,08,16,256.40
2012,08,10,08,17,257.90
2012,08,10,08,18,260.50
2012,08,10,08,19,264.30
2012,08,10,08,20,266.80
2012,08,10,08,21,271.90
2012,08,10,08,22,276.80
2012,08,10,08,23,278.90
2012,08,10,08,24,283.60
2012,08,10,08,25,287.30
2012,08,10,08,26,288.90
2012,08,10,08,27,291.20
2012,08,10,08,28,293.40
2012,08,10,08,29,296.70
2012,08,10,08,30,301.60
2012,08,10,08,31,304.60
2012,08,10,08,32,306.00
2012,08,10,08,33,307.20
2012,08,10,08,34,310.20
2012,08,10,08,35,312.90
2012,08,10,08,36,315.00
2012,08,10,08,37,315.40
2012,08,10,08,38,316.90
2012,08,10,08,39,320.60
2012,08,10,08,40,322.80
2012,08,10,08,41,325.00
2012,08,10,08,42,327.60
2012,08,10,08,43,330.70
2012,08,10,08,44,334.00
2012,08,10,08,45,337.30
2012,08,10,08,46,340.40
2012,08,10,08,47,344.90
2012,08,10,08,48,346.80
2012,08,10,08,49,350.00
2012,08,10,08,50,351.10
2012,08,10,08,51,352.60
2012,08,10,08,52,356.20
2012,08,10,08,53,359.30
2012,08,10,08,54,363.10
2012,08,10,08,55,367.20
2012,08,10,08,56,371.20
2012,08,10,08,57,375.10
2012,08,10,08,58,379.40
2012,08,10,08,59,383.60
2012,08,10,09,00,387.90
2012,08,10,09,01,390.80
2012,08,10,09,02,392.00
2012,08,10,09,03,394.90
2012,08,10,09,04,398.50
2012,08,10,09,05,403.10
2012,08,10,09,06,404.50
2012,08,10,09,07,406.90
2012,08,10,09,08,409.80
2012,08,10,09,09,413.90
2012,08,10,09,10,417.60
2012,08,10,09,11,420.60
2012,08,10,09,12,424.90
2012,08,10,09,13,427.00
2012,08,10,09,14,430.00
2012,08,10,09,15,435.00
2012,08,10,09,16,440.60
2012,08,10,09,17,443.60
2012,08,10,09,18,446.60
2012,08,10,09,19,449.80
2012,08,10,09,20,454.00
2012,08,10,09,21,458.20
2012,08,10,09,22,461.00
2012,08,10,09,23,462.80
2012,08,10,09,24,467.00
2012,08,10,09,25,469.00
2012,08,10,09,26,471.60
2012,08,10,09,27,473.00
2012,08,10,09,28,474.90
2012,08,10,09,29,475.80
2012,08,10,09,30,478.00
2012,08,10,09,31,480.20
2012,08,10,09,32,482.70
2012,08,10,09,33,486.20
2012,08,10,09,34,490.10
2012,08,10,09,35,492.00
2012,08,10,09,36,493.60
2012,08,10,09,37,496.50
2012,08,10,09,38,498.50
2012,08,10,09,39,499.00
2012,08,10,09,40,502.80
2012,08,10,09,41,501.60
2012,08,10,09,42,504.20
2012,08,10,09,43,507.20
2012,08,10,09,44,506.60
2012,08,10,09,45,506.00
2012,08,10,09,46,508.30
2012,08,10,09,47,510.50
2012,08,10,09,48,513.30
2012,08,10,09,49,517.30
2012,08,10,09,50,519.00
2012,08,10,09,51,521.70
2012,08,10,09,52,521.60
2012,08,10,09,53,522.50
2012,08,10,09,54,526.50
2012,08,10,09,55,527.80
2012,08,10,09,56,529.00
2012,08,10,09,57,530.60
2012,08,10,09,58,527.80
2012,08,10,09,59,531.70
2012,08,10,10,00,532.10
2012,08,10,10,01,532.20
2012,08,10,10,02,533.00
2012,08,10,10,03,533.10
2012,08,10,10,04,534.40
2012,08,10,10,05,536.00
2012,08,10,10,06,536.00
2012,08,10,10,07,534.70
2012,08,10,10,08,535.60
2012,08,10,10,09,538.10
2012,08,10,10,10,540.20
2012,08,10,10,11,542.60
2012,08,10,10,12,546.00
2012,08,10,10,13,547.70
2012,08,10,10,14,549.60
2012,08,10,10,15,550.00
2012,08,10,10,16,549.50
2012,08,10,10,17,548.70
2012,08,10,10,18,551.10
2012,08,10,10,19,553.40
2012,08,10,10,20,556.50
2012,08,10,10,21,559.60
2012,08,10,10,22,558.80
2012,08,10,10,23,547.50
2012,08,10,10,24,548.00
2012,08,10,10,25,410.80
2012,08,10,10,26,352.00
2012,08,10,10,27,571.30
2012,08,10,10,28,573.50
2012,08,10,10,29,575.90
2012,08,10,10,30,580.00
2012,08,10,10,31,582.00
2012,08,10,10,32,584.50
2012,08,10,10,33,589.00
2012,08,10,10,34,588.30
2012,08,10,10,35,587.90
2012,08,10,10,36,587.80
2012,08,10,10,37,588.50
2012,08,10,10,38,591.00
2012,08,10,10,39,594.80
2012,08,10,10,40,598.30
2012,08,10,10,41,600.00
2012,08,10,10,42,602.30
2012,08,10,10,43,605.20
2012,08,10,10,44,608.00
2012,08,10,10,45,610.40
2012,08,10,10,46,613.10
2012,08,10,10,47,616.90
2012,08,10,10,48,621.00
2012,08,10,10,49,625.20
2012,08,10,10,50,629.20
2012,08,10,10,51,633.00
2012,08,10,10,52,633.70
2012,08,10,10,53,635.50
2012,08,10,10,54,638.60
2012,08,10,10,55,641.60
2012,08,10,10,56,642.90
2012,08,10,10,57,643.50
2012,08,10,10,58,645.80
2012,08,10,10,59,648.10
2012,08,10,11,00,649.70
2012,08,10,11,01,653.40
2012,08,10,11,02,655.90
2012,08,10,11,03,656.90
2012,08,10,11,04,659.90
2012,08,10,11,05,659.80
2012,08,10,11,06,661.80
2012,08,10,11,07,663.00
2012,08,10,11,08,663.50
2012,08,10,11,09,666.60
2012,08,10,11,10,668.90
2012,08,10,11,11,670.00
2012,08,10,11,12,670.70
2012,08,10,11,13,672.80
2012,08,10,11,14,673.80
2012,08,10,11,15,677.60
2012,08,10,11,16,678.00
2012,08,10,11,17,677.00
2012,08,10,11,18,678.50
2012,08,10,11,19,679.00
2012,08,10,11,20,679.80
2012,08,10,11,21,679.30
2012,08,10,11,22,681.00
2012,08,10,11,23,683.30
2012,08,10,11,24,686.20
2012,08,10,11,25,690.70
2012,08,10,11,26,693.20
2012,08,10,11,27,694.70
2012,08,10,11,28,696.90
2012,08,10,11,29,698.00
2012,08,10,11,30,699.60
2012,08,10,11,31,701.30
2012,08,10,11,32,705.00
2012,08,10,11,33,705.80
2012,08,10,11,34,707.50
2012,08,10,11,35,710.60
2012,08,10,11,36,714.50
2012,08,10,11,37,715.30
2012,08,10,11,38,716.50
2012,08,10,11,39,715.90
2012,08,10,11,40,718.10
2012,08,10,11,41,716.20
2012,08,10,11,42,716.70
2012,08,10,11,43,721.40
2012,08,10,11,44,724.50
2012,08,10,11,45,726.00
2012,08,10,11,46,724.90
2012,08,10,11,47,726.80
2012,08,10,11,48,728.00
2012,08,10,11,49,731.00
2012,08,10,11,50,730.40
2012,08,10,11,51,729.00
2012,08,10,11,52,731.30
2012,08,10,11,53,734.50
2012,08,10,11,54,736.80
2012,08,10,11,55,738.00
2012,08,10,11,56,738.60
2012,08,10,11,57,740.00
2012,08,10,11,58,742.50
2012,08,10,11,59,744.00
2012,08,10,12,00,746.80
2012,08,10,12,01,748.20
2012,08,10,12,02,745.70
2012,08,10,12,03,746.10
2012,08,10,12,04,746.20
2012,08,10,12,05,747.00
2012,08,10,12,06,746.90
2012,08,10,12,07,745.50
2012,08,10,12,08,747.70
2012,08,10,12,09,750.00
2012,08,10,12,10,749.70
2012,08,10,12,11,747.40
2012,08,10,12,12,747.00
2012,08,10,12,13,747.00
2012,08,10,12,14,747.00
2012,08,10,12,15,747.00
2012,08,10,12,16,749.70
2012,08,10,12,17,751.00
2012,08,10,12,18,751.20
2012,08,10,12,19,752.00
2012,08,10,12,20,752.00
2012,08,10,12,21,753.10
2012,08,10,12,22,755.40
2012,08,10,12,23,757.70
2012,08,10,12,24,756.30
2012,08,10,12,25,758.00
2012,08,10,12,26,758.50
2012,08,10,12,27,760.20
2012,08,10,12,28,761.00
2012,08,10,12,29,761.00
2012,08,10,12,30,759.00
2012,08,10,12,31,760.80
2012,08,10,12,32,765.00
2012,08,10,12,33,765.00
2012,08,10,12,34,765.00
2012,08,10,12,35,769.50
2012,08,10,12,36,767.70
2012,08,10,12,37,766.00
2012,08,10,12,38,768.00
2012,08,10,12,39,770.00
2012,08,10,12,40,770.00
2012,08,10,12,41,770.10
2012,08,10,12,42,772.20
2012,08,10,12,43,773.00
2012,08,10,12,44,772.50
2012,08,10,12,45,770.80
2012,08,10,12,46,770.00
2012,08,10,12,47,770.00
2012,08,10,12,48,770.00
2012,08,10,12,49,771.00
2012,08,10,12,50,772.50
2012,08,10,12,51,772.70
2012,08,10,12,52,773.00
2012,08,10,12,53,775.30
2012,08,10,12,54,778.60
2012,08,10,12,55,777.70
2012,08,10,12,56,779.00
2012,08,10,12,57,779.00
2012,08,10,12,58,777.40
2012,08,10,12,59,775.10
2012,08,10,13,00,775.00
2012,08,10,13,01,774.20
2012,08,10,13,02,773.00
2012,08,10,13,03,774.40
2012,08,10,13,04,776.70
2012,08,10,13,05,775.00
2012,08,10,13,06,776.20
2012,08,10,13,07,779.00
2012,08,10,13,08,779.50
2012,08,10,13,09,779.20
2012,08,10,13,10,779.00
2012,08,10,13,11,779.20
2012,08,10,13,12,780.00
2012,08,10,13,13,779.50
2012,08,10,13,14,777.80
2012,08,10,13,15,777.00
2012,08,10,13,16,777.00
2012,08,10,13,17,777.40
2012,08,10,13,18,777.80
2012,08,10,13,19,775.00
2012,08,10,13,20,776.30
2012,08,10,13,21,773.20
2012,08,10,13,22,772.00
2012,08,10,13,23,773.00
2012,08,10,13,24,773.00
2012,08,10,13,25,772.50
2012,08,10,13,26,772.60
2012,08,10,13,27,774.60
2012,08,10,13,28,775.00
2012,08,10,13,29,775.40
2012,08,10,13,30,777.70
2012,08,10,13,31,777.90
2012,08,10,13,32,777.00
2012,08,10,13,33,777.00
2012,08,10,13,34,778.90
2012,08,10,13,35,780.00
2012,08,10,13,36,778.80
2012,08,10,13,37,775.90
2012,08,10,13,38,776.40
2012,08,10,13,39,777.00
2012,08,10,13,40,775.30
2012,08,10,13,41,776.50
2012,08,10,13,42,774.20
2012,08,10,13,43,771.30
2012,08,10,13,44,770.00
2012,08,10,13,45,768.40
2012,08,10,13,46,769.70
2012,08,10,13,47,768.50
2012,08,10,13,48,769.10
2012,08,10,13,49,766.30
2012,08,10,13,50,765.00
2012,08,10,13,51,763.30
2012,08,10,13,52,762.70
2012,08,10,13,53,760.40
2012,08,10,13,54,759.90
2012,08,10,13,55,759.80
2012,08,10,13,56,762.00
2012,08,10,13,57,761.20
2012,08,10,13,58,759.00
2012,08,10,13,59,758.70
2012,08,10,14,00,757.00
2012,08,10,14,01,757.30
2012,08,10,14,02,756.50
2012,08,10,14,03,756.00
2012,08,10,14,04,756.60
2012,08,10,14,05,759.00
2012,08,10,14,06,759.00
2012,08,10,14,07,758.40
2012,08,10,14,08,758.80
2012,08,10,14,09,759.00
2012,08,10,14,10,759.00
2012,08,10,14,11,759.00
2012,08,10,14,12,759.00
2012,08,10,14,13,758.30
2012,08,10,14,14,758.80
2012,08,10,14,15,758.20
2012,08,10,14,16,759.00
2012,08,10,14,17,759.70
2012,08,10,14,18,759.90
2012,08,10,14,19,758.30
2012,08,10,14,20,758.80
2012,08,10,14,21,758.00
2012,08,10,14,22,757.00
2012,08,10,14,23,754.00
2012,08,10,14,24,752.90
2012,08,10,14,25,751.30
2012,08,10,14,26,751.80
2012,08,10,14,27,753.70
2012,08,10,14,28,751.80
2012,08,10,14,29,753.20
2012,08,10,14,30,751.40
2012,08,10,14,31,749.50
2012,08,10,14,32,749.00
2012,08,10,14,33,745.30
2012,08,10,14,34,747.00
2012,08,10,14,35,745.70
2012,08,10,14,36,744.60
2012,08,10,14,37,744.20
2012,08,10,14,38,744.20
2012,08,10,14,39,746.70
2012,08,10,14,40,744.70
2012,08,10,14,41,742.10
2012,08,10,14,42,740.00
2012,08,10,14,43,738.50
2012,08,10,14,44,736.90
2012,08,10,14,45,733.40
2012,08,10,14,46,733.60
2012,08,10,14,47,731.00
2012,08,10,14,48,729.70
2012,08,10,14,49,728.20
2012,08,10,14,50,727.80
2012,08,10,14,51,725.60
2012,08,10,14,52,723.30
2012,08,10,14,53,721.50
2012,08,10,14,54,721.00
2012,08,10,14,55,721.00
2012,08,10,14,56,719.10
2012,08,10,14,57,718.00
2012,08,10,14,58,713.90
2012,08,10,14,59,712.00
2012,08,10,15,00,712.00
2012,08,10,15,01,712.00
2012,08,10,15,02,707.90
2012,08,10,15,03,704.00
2012,08,10,15,04,699.00
2012,08,10,15,05,696.00
2012,08,10,15,06,696.00
2012,08,10,15,07,696.00
2012,08,10,15,08,693.00
2012,08,10,15,09,692.40
2012,08,10,15,10,691.80
2012,08,10,15,11,693.00
2012,08,10,15,12,690.10
2012,08,10,15,13,687.30
2012,08,10,15,14,686.00
2012,08,10,15,15,686.00
2012,08,10,15,16,686.00
2012,08,10,15,17,686.60
2012,08,10,15,18,686.20
2012,08,10,15,19,684.20
2012,08,10,15,20,681.60
2012,08,10,15,21,679.70
2012,08,10,15,22,678.10
2012,08,10,15,23,675.80
2012,08,10,15,24,675.00
2012,08,10,15,25,673.20
2012,08,10,15,26,672.60
2012,08,10,15,27,670.70
2012,08,10,15,28,670.00
2012,08,10,15,29,668.80
2012,08,10,15,30,666.50
2012,08,10,15,31,663.80
2012,08,10,15,32,660.60
2012,08,10,15,33,659.70
2012,08,10,15,34,660.00
2012,08,10,15,35,660.30
2012,08,10,15,36,659.40
2012,08,10,15,37,659.00
2012,08,10,15,38,658.60
2012,08,10,15,39,657.00
2012,08,10,15,40,657.00
2012,08,10,15,41,656.30
2012,08,10,15,42,650.90
2012,08,10,15,43,650.40
2012,08,10,15,44,653.00
2012,08,10,15,45,650.00
2012,08,10,15,46,649.50
2012,08,10,15,47,647.60
2012,08,10,15,48,643.60
2012,08,10,15,49,639.70
2012,08,10,15,50,637.20
2012,08,10,15,51,635.00
2012,08,10,15,52,632.80
2012,08,10,15,53,629.60
2012,08,10,15,54,628.10
2012,08,10,15,55,628.00
2012,08,10,15,56,628.00
2012,08,10,15,57,628.00
2012,08,10,15,58,626.80
2012,08,10,15,59,624.60
2012,08,10,16,00,622.30
2012,08,10,16,01,621.80
2012,08,10,16,02,620.40
2012,08,10,16,03,618.00
2012,08,10,16,04,615.80
2012,08,10,16,05,616.50
2012,08,10,16,06,613.30
2012,08,10,16,07,609.20
2012,08,10,16,08,605.00
2012,08,10,16,09,603.00
2012,08,10,16,10,601.70
2012,08,10,16,11,599.50
2012,08,10,16,12,594.00
2012,08,10,16,13,590.50
2012,08,10,16,14,587.60
2012,08,10,16,15,584.50
2012,08,10,16,16,584.00
2012,08,10,16,17,580.80
2012,08,10,16,18,577.90
2012,08,10,16,19,574.50
2012,08,10,16,20,572.30
2012,08,10,16,21,570.50
2012,08,10,16,22,570.00
2012,08,10,16,23,570.80
2012,08,10,16,24,569.80
2012,08,10,16,25,567.50
2012,08,10,16,26,565.20
2012,08,10,16,27,563.50
2012,08,10,16,28,560.20
2012,08,10,16,29,555.60
2012,08,10,16,30,554.50
2012,08,10,16,31,550.90
2012,08,10,16,32,545.90
2012,08,10,16,33,541.80
2012,08,10,16,34,540.30
2012,08,10,16,35,536.60
2012,08,10,16,36,536.00
2012,08,10,16,37,535.10
2012,08,10,16,38,532.00
2012,08,10,16,39,531.00
2012,08,10,16,40,529.50
2012,08,10,16,41,527.20
2012,08,10,16,42,527.00
2012,08,10,16,43,526.70
2012,08,10,16,44,525.00
2012,08,10,16,45,521.60
2012,08,10,16,46,517.90
2012,08,10,16,47,513.20
2012,08,10,16,48,508.60
2012,08,10,16,49,501.70
2012,08,10,16,50,496.80
2012,08,10,16,51,492.80
2012,08,10,16,52,490.40
2012,08,10,16,53,487.10
2012,08,10,16,54,487.00
2012,08,10,16,55,486.20
2012,08,10,16,56,483.40
2012,08,10,16,57,479.40
2012,08,10,16,58,476.40
2012,08,10,16,59,473.10
2012,08,10,17,00,472.60
2012,08,10,17,01,470.00
2012,08,10,17,02,468.00
2012,08,10,17,03,465.30
2012,08,10,17,04,462.40
2012,08,10,17,05,456.80
2012,08,10,17,06,453.00
2012,08,10,17,07,449.20
2012,08,10,17,08,446.90
2012,08,10,17,09,443.90